Change the Weather History Date:

Monday, September 9, 2013

  Actual Average Record
Temperature  
Mean Temperature 68 °F -  
Max Temperature 80 °F 58 °F 87 °F (2011)
Min Temperature 55 °F 35 °F 27 °F (2014)
Cooling Degree Days 2    
Growing Degree Days 18 (Base 50)    
Moisture  
Dew Point 56 °F    
Average Humidity 72    
Maximum Humidity 100    
Minimum Humidity 38    
Precipitation  
Precipitation 0.00 in 0.05 in - ()
Sea Level Pressure  
Sea Level Pressure 29.73 in    
Wind  
Wind Speed 4 mph ()    
Max Wind Speed 10 mph    
Max Gust Speed 17 mph    
Visibility 15.0 miles    
Events      
Averages and records for this station are not official NWS values.
T = Trace of Precipitation, MM = Missing Value Source: Averaged Metar Reports

Daily Weather History Graph

Daily Weather History Graph

Search for Another Location

Airport or City:

Trip Planner

Search our weather history database for the weather conditions in past years. The results will help you decide how hot, cold, wet, or windy it might be!

Date:

Astronomy

Sep. 09, 2013 Rise Set
Actual Time 6:26 AM CST 7:31 PM CST
Civil Twilight 5:51 AM CST 8:07 PM CST
Nautical Twilight 5:08 AM CST 8:50 PM CST
Astronomical Twilight 4:21 AM CST 9:36 PM CST
Moon 11:34 AM CST (9/9) 9:04 PM CST (9/9)
Length of Visible Light 14h 16m
Length of Day
13h 05m
Waxing Crescent, 19% of the Moon is Illuminated
Sep 9
Waxing Crescent
Sep 12
First Quarter
Sep 19
Full
Sep 26
Last Quarter
Oct 4
New

Hourly Weather History & Observations

Time (CST) Temp. Heat Index Dew Point Humidity Pressure Visibility Wind Dir Wind Speed Gust Speed Precip Events Conditions
12:00 AM 60.8 °F - 55.4 °F 82% 29.78 in 15.0 mi WSW 2.3 mph - N/A   Scattered Clouds
1:00 AM 60.8 °F - 55.4 °F 82% 29.77 in 15.0 mi WSW 4.6 mph - N/A   Partly Cloudy
2:00 AM 60.8 °F - 55.4 °F 82% 29.76 in 15.0 mi SW 3.5 mph - N/A   Partly Cloudy
3:00 AM 55.4 °F - 55.4 °F 100% 29.75 in 15.0 mi SSW 4.6 mph - N/A   Clear
4:00 AM 59.0 °F - 55.4 °F 88% 29.75 in 15.0 mi SW 6.9 mph - N/A   Clear
5:00 AM 59.0 °F - 55.4 °F 88% 29.75 in 15.0 mi WSW 4.6 mph - N/A   Mostly Cloudy
6:00 AM 55 °F - 54 °F 94% 29.74 in 15 mi WNW 3.5 mph - -   Scattered Clouds
6:00 AM 55.4 °F - 53.6 °F 94% 29.74 in 15.0 mi WNW 3.5 mph - N/A   Mostly Cloudy
7:00 AM 55.4 °F - 55.4 °F 100% 29.75 in 15.0 mi West 4.6 mph - N/A   Mostly Cloudy
8:00 AM 59.0 °F - 55.4 °F 88% 29.75 in 15.0 mi West 3.5 mph - N/A   Mostly Cloudy
9:00 AM 64.4 °F - 59.0 °F 83% 29.75 in 15.0 mi SSW 4.6 mph - N/A   Mostly Cloudy
10:00 AM 68.0 °F - 59.0 °F 73% 29.75 in 15.0 mi South 4.6 mph - N/A   Mostly Cloudy
11:00 AM 71.6 °F - 60.8 °F 69% 29.73 in 15.0 mi Calm Calm - N/A   Mostly Cloudy
12:00 PM 75 °F - 59 °F 47% 29.72 in 15 mi WSW 5.8 mph - -   Scattered Clouds
12:00 PM 75.2 °F - 59.0 °F 57% 29.72 in 15.0 mi WSW 6.9 mph - N/A   Mostly Cloudy
1:00 PM 75.2 °F - 57.2 °F 53% 29.71 in 15.0 mi WSW 5.8 mph - N/A   Mostly Cloudy
2:00 PM 78.8 °F - 59.0 °F 51% 29.70 in 15.0 mi WSW 10.4 mph 17.3 mph N/A   Mostly Cloudy
3:00 PM 80.6 °F 80.8 °F 57.2 °F 45% 29.69 in 15.0 mi West 10.4 mph - N/A   Mostly Cloudy
4:00 PM 77.0 °F - 57.2 °F 50% 29.68 in 15.0 mi NW 2.3 mph - N/A   Mostly Cloudy
5:00 PM 80.6 °F 80.5 °F 55.4 °F 42% 29.68 in 15.0 mi NNW 9.2 mph - N/A   Mostly Cloudy
6:00 PM 75 °F - 54 °F 38% 29.69 in 15 mi NNW 6.9 mph - -   Scattered Clouds
6:00 PM 75.2 °F - 53.6 °F 47% 29.69 in 15.0 mi North 5.8 mph - N/A   Mostly Cloudy
7:00 PM 68.0 °F - 59.0 °F 73% 29.70 in 15.0 mi South 2.3 mph - N/A   Scattered Clouds
8:00 PM 66.2 °F - 59.0 °F 78% 29.70 in 15.0 mi South 3.5 mph - N/A   Mostly Cloudy
9:00 PM 60.8 °F - 55.4 °F 82% 29.72 in 15.0 mi ESE 2.3 mph - N/A   Mostly Cloudy
10:00 PM 59.0 °F - 55.4 °F 88% 29.73 in 15.0 mi WNW 3.5 mph - N/A   Partly Cloudy
11:00 PM 59.0 °F - 53.6 °F 82% 29.74 in 15.0 mi West 2.3 mph - N/A   Partly Cloudy